{"data":{"norad_id":59357,"intl_designator":"2024-060K","name":"STARLINK-31557","alt_names":[],"object_type":"PAYLOAD","status":"ACTIVE","operator":null,"country":"US","launch_date":"2024-03-31","launch_site_code":"AFETR","launch_vehicle":null,"mission":null,"orbit_class":"UNKNOWN","rcs_meters":null,"size_class":null,"mass_kg":null,"dimensions":null,"purposes":["comms"],"wikipedia_slug":null,"has_3d_model":false,"image_url":null,"decayed_at":null,"tle_current":{"epoch":"2026-09-21T22:32:51.566208Z","epoch_age_seconds":37935,"freshness":"FRESH","line1":"1 59357U 24060K   26264.93948572  .00000119  00000+0  13853-4 0  9992","line2":"2 59357  43.0027 227.4467 0000911 271.6932  88.3815 15.27577207140124","mean_motion":15.27577207,"eccentricity":9.11e-5,"inclination_deg":43.0027,"raan_deg":227.4467,"arg_perigee_deg":271.6932,"mean_anomaly_deg":88.3815,"bstar":1.3853e-5,"rev_number":14012,"period_min":94.266921069607,"perigee_km":482.43240448393,"apogee_km":483.68251411441,"semimajor_km":6861.1944592992,"source":"CELESTRAK","updated_at":"2026-09-22T09:00:48.904735Z"}}}